Date,TemperatureHighF,TemperatureAvgF,TemperatureLowF,DewpointHighF,DewpointAvgF,DewpointLowF,HumidityHigh,HumidityAvg,HumidityLow,PressureMaxIn,PressureMinIn,WindSpeedMaxMPH,WindSpeedAvgMPH,GustSpeedMaxMPH,PrecipitationSumIn
2013-1-1,60,48,37,30,21,13,56,36,19,30.28,30.18,6,1,8,0.00
2013-1-2,66,52,41,20,14,11,35,23,12,30.22,30.05,9,2,9,0.00
2013-1-3,68,53,40,20,11,5,35,20,9,30.23,30.08,15,2,17,0.00
2013-1-4,64,47,34,15,9,3,32,21,11,30.31,30.20,8,2,10,0.00
2013-1-5,64,47,33,17,11,6,37,24,12,30.34,30.17,8,1,8,0.00
2013-1-6,64,50,36,38,24,10,58,36,18,30.18,29.97,21,5,25,0.00
2013-1-7,70,58,46,40,26,9,69,35,13,30.05,29.95,21,4,24,0.00
2013-1-8,81,65,50,34,25,14,31,22,15,30.09,29.97,14,3,16,0.00
2013-1-9,73,60,48,39,31,27,51,34,21,30.15,29.91,10,2,10,0.00
2013-1-10,64,56,48,43,32,14,61,42,24,30.00,29.78,29,6,31,0.00
2013-1-11,57,50,46,24,16,9,38,26,15,30.12,30.00,23,5,27,0.00
2013-1-12,57,47,36,27,17,8,55,33,15,30.17,30.03,15,2,17,0.00
2013-1-13,55,43,30,14,9,2,41,26,16,30.20,30.05,14,2,14,0.00
2013-1-14,54,44,37,6,-1,-9,23,15,8,30.39,30.21,28,6,28,0.00
2013-1-15,58,46,36,16,9,-2,34,22,15,30.50,30.36,15,3,17,0.00
2013-1-16,68,46,35,25,17,7,42,31,19,30.43,30.24,9,2,10,0.00
2013-1-17,75,57,43,25,17,11,35,22,11,30.29,30.14,7,1,8,0.00
2013-1-18,77,59,45,24,17,10,28,20,11,30.22,30.10,5,1,6,0.00
2013-1-19,78,61,47,24,14,9,26,17,9,30.24,30.11,6,1,9,0.00
2013-1-20,79,62,43,20,11,6,27,14,7,30.17,30.03,7,1,10,0.00
2013-1-21,80,63,48,24,10,3,20,13,6,30.13,30.02,10,1,10,0.00
2013-1-22,79,60,45,22,12,2,23,15,7,30.15,30.04,6,1,7,0.00
2013-1-23,76,63,51,30,22,13,31,21,12,30.13,30.02,5,0,6,0.00
2013-1-24,70,64,59,48,38,27,66,39,26,30.20,30.04,15,1,17,0.01
2013-1-25,63,60,58,57,54,48,93,83,67,30.18,29.98,7,1,7,0.42
2013-1-26,69,62,57,59,56,55,95,83,65,29.98,29.85,11,1,12,0.13
2013-1-27,66,59,52,57,47,33,93,68,36,29.96,29.85,18,4,20,0.00
2013-1-28,64,55,49,38,28,21,64,37,23,30.12,29.94,26,7,26,0.00
2013-1-29,65,55,45,41,30,22,66,41,22,30.23,30.06,18,3,19,0.00
2013-1-30,69,55,44,40,36,31,78,52,25,30.35,30.21,9,1,9,0.00
2013-1-31,76,58,44,41,37,33,75,50,23,30.25,30.09,7,1,7,0.00